North Las Vegas, NV

4:49 PM PDT on August 20, 2017 (GMT -0700)
North Las Vegas

Weather History for KVGT - December, 2014

Change the Weather History Date:

Wednesday, December 3, 2014

  Actual Average Record
Temperature  
Mean Temperature 52 °F 49 °F  
Max Temperature 53 °F 59 °F 69 °F (2013)
Min Temperature 50 °F 40 °F 33 °F (2006)
Degree Days  
Heating Degree Days 14 16  
Month to date heating degree days 46  
Since 1 July heating degree days 359  
Cooling Degree Days 0 0  
Month to date cooling degree days 0  
Year to date cooling degree days 3294  
Growing Degree Days 2 (Base 50)    
Moisture  
Dew Point 48 °F    
Average Humidity 86    
Maximum Humidity 94    
Minimum Humidity 83    
Precipitation  
Precipitation 0.00 in 0.01 in 0.11 in (1954)
Month to date precipitation 0.04  
Year to date precipitation 4.84  
Sea Level Pressure  
Sea Level Pressure 30.06 in    
Wind  
Wind Speed 6 mph (SE)    
Max Wind Speed 8 mph    
Max Gust Speed -    
Visibility 10 miles    
Events Rain    
T = Trace of Precipitation, MM = Missing Value Source: NWS Daily Summary

Daily Weather History Graph

Daily Weather History Graph

Search for Another Location

Airport or City:

Trip Planner

Search our weather history database for the weather conditions in past years. The results will help you decide how hot, cold, wet, or windy it might be!

Date:

Astronomy

Dec. 03, 2014 Rise Set
Actual Time 6:35 AM PST 4:25 PM PST
Civil Twilight 6:06 AM PST 4:54 PM PST
Nautical Twilight 5:35 AM PST 5:26 PM PST
Astronomical Twilight 5:04 AM PST 5:57 PM PST
Moon 2:44 PM PST (12/3) 3:32 AM PST (12/3)
Length of Visible Light 10h 47m
Length of Day
9h 50m
Waxing Gibbous, 92% of the Moon is Illuminated
Dec 3
Waxing Gibbous
Dec 6
Full
Dec 14
Last Quarter
Dec 21
New
Dec 28
First Quarter

Hourly Weather History & Observations

Time (PST) Temp. Dew Point Humidity Pressure Visibility Wind Dir Wind Speed Gust Speed Precip Events Conditions
12:33 AM 50.0 °F 46.0 °F 86% 30.04 in 10.0 mi ESE 8.1 mph - N/A   Overcast
12:53 AM 50.0 °F 46.0 °F 86% 30.08 in 10.0 mi ESE 4.6 mph - N/A   Overcast
1:06 AM 50.0 °F 46.0 °F 86% 30.04 in 10.0 mi ESE 5.8 mph - N/A   Overcast
1:53 AM 50.0 °F 46.0 °F 86% 30.09 in 10.0 mi SE 4.6 mph - N/A   Overcast
2:25 AM 50.0 °F 46.0 °F 86% 30.04 in 10.0 mi ESE 5.8 mph - N/A   Overcast
2:53 AM 50.0 °F 46.0 °F 86% 30.09 in 10.0 mi SSE 5.8 mph - N/A   Overcast
3:03 AM 50.0 °F 46.0 °F 86% 30.04 in 10.0 mi SSE 4.6 mph - N/A   Overcast
3:53 AM 50.0 °F 46.0 °F 86% 30.09 in 10.0 mi SSE 4.6 mph - N/A   Overcast
4:17 AM 50.0 °F 45.0 °F 83% 30.04 in 10.0 mi SE 5.8 mph - N/A   Overcast
4:27 AM 50.0 °F 46.0 °F 86% 30.03 in 10.0 mi SE 4.6 mph - N/A   Overcast
4:53 AM 50.0 °F 46.0 °F 86% 30.09 in 10.0 mi Calm Calm - N/A   Overcast
5:44 AM 50.0 °F 46.0 °F 86% 30.06 in 9.0 mi SE 4.6 mph - 0.00 in Rain Light Rain
5:53 AM 50.0 °F 46.0 °F 86% 30.11 in 10.0 mi ESE 5.8 mph - 0.00 in Rain Light Rain
6:53 AM 50.0 °F 46.0 °F 86% 30.12 in 10.0 mi ESE 4.6 mph - 0.00 in   Overcast
7:53 AM 50.0 °F 46.0 °F 86% 30.14 in 10.0 mi SE 6.9 mph - N/A   Overcast
8:41 AM 51.1 °F 46.0 °F 83% 30.09 in 10.0 mi ESE 6.9 mph - N/A   Overcast
8:53 AM 51.1 °F 46.9 °F 86% 30.14 in 10.0 mi ESE 5.8 mph - N/A   Overcast
9:53 AM 51.1 °F 46.0 °F 83% 30.15 in 10.0 mi ESE 5.8 mph - N/A   Overcast
10:53 AM 51.1 °F 46.9 °F 86% 30.14 in 8.0 mi ESE 6.9 mph - N/A   Overcast
11:53 AM 52.0 °F 48.0 °F 86% 30.11 in 10.0 mi ESE 5.8 mph - N/A   Overcast
12:45 PM 52.0 °F 48.0 °F 86% 30.04 in 10.0 mi ESE 8.1 mph - N/A   Overcast
12:53 PM 52.0 °F 48.0 °F 86% 30.09 in 10.0 mi ESE 5.8 mph - N/A   Overcast
1:21 PM 52.0 °F 48.0 °F 86% 30.02 in 10.0 mi ESE 4.6 mph - N/A   Overcast
1:46 PM 52.0 °F 48.0 °F 86% 30.02 in 10.0 mi ESE 6.9 mph - N/A   Overcast
1:53 PM 52.0 °F 48.0 °F 86% 30.07 in 10.0 mi ESE 4.6 mph - N/A   Overcast
2:53 PM 53.1 °F 48.0 °F 83% 30.06 in 10.0 mi SSE 5.8 mph - N/A   Overcast
3:53 PM 53.1 °F 48.9 °F 86% 30.06 in 10.0 mi SE 5.8 mph - N/A   Overcast
4:28 PM 53.1 °F 48.9 °F 86% 30.02 in 10.0 mi Calm Calm - N/A   Overcast
4:53 PM 53.1 °F 48.9 °F 86% 30.06 in 10.0 mi Calm Calm - N/A   Overcast
5:53 PM 53.1 °F 48.0 °F 83% 30.07 in 10.0 mi ESE 5.8 mph - N/A   Overcast
6:53 PM 53.1 °F 48.0 °F 83% 30.06 in 10.0 mi SSE 5.8 mph - N/A   Overcast
7:53 PM 53.1 °F 48.9 °F 86% 30.06 in 10.0 mi SSE 5.8 mph - N/A   Overcast
8:30 PM 53.1 °F 48.9 °F 86% 30.01 in 10.0 mi SE 4.6 mph - N/A   Overcast
8:39 PM 53.1 °F 48.9 °F 86% 30.01 in 10.0 mi SE 4.6 mph - N/A   Overcast
8:53 PM 53.1 °F 48.9 °F 86% 30.07 in 10.0 mi SE 5.8 mph - N/A   Overcast
9:53 PM 51.8 °F 50.0 °F 94% 30.00 in 8.0 mi South 4.6 mph - N/A   Overcast
10:41 PM 53.1 °F 50.0 °F 89% 30.00 in 7.0 mi South 4.6 mph - N/A   Overcast
10:53 PM 53.1 °F 50.0 °F 89% 30.04 in 9.0 mi South 5.8 mph - N/A   Overcast
11:10 PM 53.1 °F 50.0 °F 89% 30.00 in 9.0 mi SSE 6.9 mph - N/A   Overcast
11:42 PM 53.1 °F 50.0 °F 89% 30.00 in 10.0 mi SSE 4.6 mph - N/A   Overcast
11:53 PM 53.1 °F 50.0 °F 89% 30.04 in 10.0 mi South 3.5 mph - N/A   Overcast